Wind_Speed
49 45 45 47 48 46 45 43 43 44 44 37 40 36 45 51 53 51 49 50 51 53 57 59 58 58 60 60 62 61 61 64 70 70 72 77 83 89 92 95 99 103 104 104
48 51 51 52 52 49 45 43 47 45 45 42 41 36 43 52 57 55 55 59 58 56 58 60 62 61 60 62 65 64 68 72 75 76 81 86 90 94 98 104 104 105 107 108
50 55 57 55 55 50 45 47 49 49 47 46 44 37 42 52 58 62 65 63 60 57 60 62 64 65 66 68 69 72 76 78 80 83 88 92 94 98 104 106 108 106 107 103
53 59 60 58 58 56 51 54 52 52 51 48 53 34 41 50 58 65 66 63 60 62 62 64 67 70 72 72 75 79 80 83 86 88 93 97 99 102 107 107 108 110 95 94
60 61 61 60 61 61 55 56 58 54 56 53 54 52 44 58 61 65 62 62 62 61 62 65 70 72 74 76 78 81 84 88 92 95 97 100 103 106 111 110 109 101 95 97
62 62 62 65 64 62 62 61 59 58 60 55 60 59 50 58 57 60 61 64 62 64 65 68 70 73 77 79 81 85 90 95 96 99 103 105 107 111 113 114 110 95 89 83
66 66 67 66 66 65 66 68 70 66 66 63 62 57 54 55 56 62 65 65 66 65 69 71 73 76 79 84 87 93 97 100 103 106 108 110 113 114 115 114 97 85 82 83
71 65 69 65 69 71 72 74 78 77 74 67 63 59 54 53 61 66 69 67 68 71 75 81 83 85 87 91 94 99 100 105 108 110 110 111 114 116 114 102 90 88 83 78
77 70 72 74 74 76 76 78 81 86 83 76 63 53 50 55 67 70 72 71 73 76 81 83 85 88 93 94 99 102 105 108 110 110 111 114 111 110 107 100 94 93 89 84
82 82 76 76 76 76 80 79 81 85 86 80 63 56 51 61 68 72 74 76 78 81 85 86 89 95 95 100 106 106 109 108 109 111 114 111 110 104 101 100 100 95 94 92
87 89 80 72 73 75 78 77 83 87 84 87 79 55 60 69 70 75 80 80 83 88 92 97 99 100 104 107 107 109 111 109 108 109 107 106 103 102 104 104 103 100 97 97
87 96 90 81 77 80 82 84 87 87 88 89 94 61 73 69 75 82 86 86 89 95 95 97 98 104 103 105 108 108 107 108 106 107 106 103 103 105 108 106 102 100 97 97
93 97 92 81 81 87 91 87 86 90 90 88 99 75 80 82 87 94 91 91 97 102 108 107 105 106 105 103 102 107 105 106 106 103 102 107 107 109 109 108 100 102 99 99
102 100 93 87 86 90 89 88 87 92 89 94 93 98 77 90 97 95 95 93 100 105 106 105 108 108 106 104 106 107 104 107 105 106 106 108 108 109 109 108 105 104 105 101
106 105 100 103 96 106 105 94 89 89 94 106 95 105 87 100 102 100 96 107 106 106 107 108 105 108 103 107 109 105 105 105 106 108 112 112 110 110 109 107 108 109 110 107
105 104 109 107 102 112 115 98 96 90 99 101 105 98 101 103 110 100 109 108 112 110 108 103 105 105 105 104 104 103 108 107 109 108 110 111 112 109 109 107 107 109 109 108
114 119 112 118 115 125 109 90 104 94 96 108 110 100 104 111 114 109 112 116 118 114 108 105 107 108 105 103 107 109 109 110 113 112 113 115 110 111 111 107 108 113 111 103
121 122 124 121 126 128 105 96 103 106 95 103 111 111 114 115 112 111 119 123 117 116 111 112 112 110 103 105 110 112 115 116 115 116 117 114 110 112 111 107 109 115 113 104
128 125 124 129 135 124 106 97 108 111 100 96 111 112 121 119 117 117 126 122 121 117 118 115 116 110 111 111 115 115 116 117 123 123 118 115 114 113 113 108 111 115 111 106
133 136 133 136 133 134 111 106 113 115 109 92 113 117 122 125 128 125 127 124 119 119 122 119 121 115 118 116 117 119 120 123 127 126 120 114 121 114 112 107 109 116 111 105
135 131 133 134 137 135 119 118 120 120 107 118 120 122 128 129 130 123 130 121 120 122 123 121 126 120 118 123 119 121 125 129 133 126 122 123 126 122 115 113 111 111 106 103
139 138 136 135 139 138 121 126 127 124 124 124 128 130 130 131 126 131 121 120 126 126 127 126 128 120 122 118 119 122 130 136 131 130 139 129 124 117 112 109 112 104 102 99
139 133 136 138 138 137 133 132 132 132 131 132 129 127 130 132 128 129 122 121 126 132 128 129 126 127 124 121 122 122 135 132 134 140 128 126 116 111 111 114 110 99 96 90
125 127 136 133 123 128 133 129 127 130 128 128 123 122 124 122 124 125 122 123 130 130 131 133 133 131 127 126 126 130 131 137 142 135 125 119 113 114 115 115 105 96 89 82
112 122 121 123 114 121 125 125 125 119 124 121 123 122 120 118 126 127 120 125 130 131 132 134 135 134 130 125 132 130 135 141 142 128 131 127 120 120 122 116 102 93 85 75
115 121 117 123 119 123 113 110 118 120 118 124 126 120 113 118 124 128 124 127 129 129 132 133 133 132 132 130 136 133 142 145 135 130 133 128 126 126 119 108 104 93 85 75
Wind_Direction
277 279 283 288 293 294 293 290 289 297 303 303 301 297 297 298 298 300 306 309 311 312 314 312 309 307 305 306 307 307 308 307 310 310 311 313 311 310 309 307 305 304 302 303
275 279 284 288 291 290 289 288 287 293 300 304 302 299 302 300 299 298 302 304 306 309 310 311 310 307 305 304 304 304 305 307 307 308 308 309 308 307 307 305 307 305 304 302
274 279 285 287 287 287 288 285 287 291 296 300 303 305 303 300 299 301 304 304 306 308 308 309 308 306 304 304 305 305 305 305 307 305 305 305 305 303 304 306 308 307 304 300
278 280 283 284 284 284 285 286 287 291 293 297 298 299 302 299 294 300 303 301 305 306 306 306 305 305 303 304 304 302 303 305 305 306 304 304 303 303 305 308 310 307 306 300
277 277 279 282 283 284 286 287 290 293 294 300 294 303 303 296 298 299 296 296 301 302 304 305 305 305 303 304 302 303 304 306 306 305 303 303 303 306 306 308 308 304 302 296
278 278 280 283 283 284 288 288 289 291 293 298 292 301 310 299 299 293 291 292 296 301 305 306 307 306 304 305 306 307 307 307 307 306 304 305 306 306 307 307 304 302 303 297
282 282 283 284 284 286 288 288 289 289 292 295 294 302 304 302 300 292 291 293 297 299 303 305 304 306 307 305 307 309 307 306 305 305 306 306 306 306 305 304 305 301 306 310
283 282 285 285 285 285 288 290 290 292 292 291 295 301 301 300 295 293 293 297 298 299 301 303 305 306 307 308 309 308 307 307 306 305 306 306 305 305 305 306 311 316 316 312
283 283 280 281 283 287 289 290 295 295 294 295 297 298 304 301 294 293 296 298 298 300 301 303 305 304 305 306 306 306 305 305 305 306 307 307 308 307 308 315 318 321 318 315
283 282 281 283 286 289 291 294 295 292 295 297 297 302 303 293 291 295 297 298 301 302 301 303 304 305 305 307 306 306 306 306 306 307 307 308 309 309 316 320 322 322 321 317
281 281 282 287 289 290 292 294 291 290 297 297 299 304 301 289 295 295 295 297 300 300 302 303 305 305 305 305 305 305 305 306 306 307 307 309 313 318 321 325 324 324 323 320
283 281 283 284 287 289 290 291 290 293 293 295 299 303 295 295 295 294 297 302 301 303 308 307 305 306 306 304 303 304 307 307 306 311 311 315 319 324 324 325 324 324 326 323
279 280 283 287 287 285 285 286 289 290 292 298 293 302 299 300 296 294 297 300 301 304 305 308 309 307 306 303 305 306 308 314 316 315 316 322 324 327 325 325 324 327 327 326
274 281 286 286 287 286 288 286 285 287 293 290 291 293 302 299 294 297 297 301 299 301 306 308 307 307 306 307 308 314 314 316 318 318 322 324 324 326 326 325 327 327 326 325
276 280 287 284 286 285 286 290 294 289 290 285 293 291 302 294 297 293 298 299 306 306 306 306 305 305 307 310 313 314 318 319 322 324 324 325 325 326 325 326 328 326 326 325
278 280 281 283 282 284 282 287 294 290 286 289 288 296 295 297 296 301 304 303 306 306 308 306 306 312 312 312 314 318 320 320 323 324 324 325 327 326 325 325 326 324 325 323
279 283 284 283 280 283 283 289 287 294 288 286 288 297 296 293 298 301 304 304 308 308 310 309 311 312 313 313 316 318 320 321 321 323 326 324 325 325 325 324 324 324 322 322
276 281 280 284 281 287 290 287 287 287 289 293 292 292 293 293 297 302 301 307 309 309 311 312 311 312 311 314 316 318 320 320 322 325 325 323 323 324 324 323 324 324 321 321
276 280 279 281 285 287 289 289 282 284 291 305 295 292 291 297 299 303 305 307 307 311 311 310 311 312 312 316 316 317 318 320 324 324 322 321 322 323 324 322 325 323 320 320
280 281 279 282 285 286 292 284 284 289 290 296 286 291 295 296 299 302 303 307 307 307 307 309 312 311 311 313 315 317 320 321 322 324 319 322 323 322 323 321 325 323 319 319
274 273 274 277 283 287 288 286 282 287 296 288 294 294 292 295 296 301 301 302 302 304 306 308 310 310 311 312 314 318 320 322 321 320 320 322 323 322 321 322 325 322 317 317
274 275 277 280 280 281 281 279 283 288 289 289 290 292 291 295 295 296 298 296 299 301 303 307 308 309 310 311 315 317 319 318 319 320 321 322 322 321 322 324 325 321 317 316
273 275 273 275 279 279 281 281 284 285 284 286 286 285 289 292 294 294 296 298 297 299 303 305 308 309 308 311 314 316 314 317 319 321 319 322 322 323 325 325 324 322 316 317
272 273 274 274 278 278 279 281 283 283 285 284 285 288 291 290 290 293 293 294 296 299 301 303 306 307 308 310 312 315 314 317 319 318 319 320 323 323 323 324 323 320 315 317
273 270 272 273 277 279 278 279 281 278 279 284 286 287 287 285 287 290 291 294 295 297 299 303 305 306 308 309 310 311 313 314 316 314 317 319 321 321 321 323 322 317 315 316
271 274 273 277 279 278 278 278 277 280 280 282 285 284 281 284 284 289 289 290 293 296 298 301 305 305 307 307 307 308 310 312 312 311 314 317 319 320 322 322 322 316 314 314
Height
10761 10762 10760 10758 10757 10755 10754 10752 10748 10744 10744 10747 10740 10741 10729 10720 10717 10716 10715 10711 10709 10705 10702 10697 10691 10684 10678 10673 10669 10663 10658 10651 10644 10635 10626 10616 10605 10592 10579 10566 10551 10537 10521 10507
10751 10749 10748 10746 10745 10744 10744 10742 10737 10738 10735 10736 10734 10734 10724 10712 10702 10702 10702 10699 10698 10694 10689 10684 10678 10672 10666 10661 10656 10650 10643 10636 10627 10619 10610 10601 10590 10574 10559 10542 10526 10511 10495 10480
10739 10736 10733 10733 10731 10732 10732 10731 10729 10728 10726 10724 10725 10730 10720 10700 10692 10686 10683 10679 10678 10678 10674 10669 10662 10656 10651 10645 10640 10634 10626 10619 10611 10602 10593 10582 10570 10554 10539 10522 10504 10488 10471 10452
10728 10720 10721 10721 10717 10718 10722 10715 10717 10716 10715 10717 10709 10726 10718 10702 10684 10678 10671 10666 10665 10663 10660 10654 10648 10642 10635 10630 10624 10617 10610 10602 10593 10584 10573 10560 10546 10532 10513 10498 10481 10465 10442 10422
10712 10710 10707 10705 10702 10700 10706 10703 10702 10702 10700 10707 10700 10704 10712 10692 10683 10670 10661 10655 10655 10652 10648 10642 10635 10627 10620 10617 10609 10601 10593 10585 10574 10561 10550 10535 10521 10506 10489 10474 10459 10440 10418 10397
10693 10695 10694 10691 10688 10687 10686 10685 10686 10687 10685 10695 10686 10690 10701 10677 10672 10658 10649 10640 10641 10638 10632 10626 10621 10613 10608 10600 10591 10583 10573 10563 10550 10537 10522 10511 10495 10479 10465 10448 10435 10416 10393 10371
10678 10679 10680 10678 10674 10672 10669 10666 10666 10673 10672 10676 10674 10681 10679 10665 10656 10644 10635 10631 10630 10623 10615 10610 10604 10597 10589 10580 10573 10562 10551 10538 10525 10511 10497 10483 10468 10455 10441 10425 10408 10387 10367 10347
10663 10672 10662 10667 10659 10658 10658 10651 10642 10645 10651 10660 10664 10669 10666 10656 10637 10625 10618 10620 10615 10609 10601 10593 10586 10578 10569 10561 10552 10540 10528 10514 10500 10487 10472 10457 10444 10428 10411 10394 10372 10354 10336 10320
10641 10656 10653 10649 10648 10646 10646 10638 10631 10618 10620 10629 10649 10654 10652 10637 10616 10609 10603 10602 10596 10590 10582 10576 10569 10560 10550 10542 10531 10518 10505 10491 10477 10463 10449 10430 10415 10397 10381 10360 10339 10324 10306 10290
10621 10620 10635 10636 10638 10636 10626 10626 10616 10599 10595 10604 10631 10638 10634 10614 10601 10592 10587 10582 10578 10570 10561 10556 10549 10537 10529 10518 10504 10492 10478 10465 10449 10435 10422 10407 10389 10369 10348 10328 10308 10292 10276 10261
10602 10596 10613 10624 10625 10619 10612 10612 10597 10584 10586 10574 10590 10628 10612 10592 10586 10574 10564 10562 10556 10546 10540 10532 10523 10515 10504 10491 10478 10465 10452 10439 10427 10411 10396 10378 10357 10338 10319 10301 10280 10263 10247 10229
10585 10570 10586 10604 10609 10604 10597 10591 10582 10573 10569 10565 10556 10601 10586 10580 10567 10553 10547 10546 10536 10524 10515 10506 10499 10489 10478 10465 10453 10441 10430 10416 10401 10383 10365 10347 10330 10311 10294 10274 10257 10236 10220 10202
10564 10553 10561 10585 10589 10580 10572 10578 10573 10561 10555 10559 10526 10566 10558 10552 10541 10527 10530 10523 10513 10503 10492 10485 10476 10464 10452 10439 10427 10414 10402 10385 10369 10352 10337 10320 10304 10289 10271 10253 10235 10211 10193 10179
10539 10537 10553 10555 10565 10550 10551 10558 10558 10551 10545 10528 10524 10517 10560 10521 10510 10510 10505 10503 10489 10482 10468 10459 10448 10434 10422 10411 10398 10382 10373 10358 10342 10328 10313 10298 10282 10265 10247 10230 10211 10190 10169 10151
10524 10521 10530 10527 10546 10517 10524 10536 10541 10541 10530 10491 10517 10489 10524 10493 10487 10488 10484 10473 10468 10454 10444 10434 10422 10408 10396 10382 10369 10356 10344 10330 10315 10304 10289 10275 10258 10243 10226 10207 10187 10166 10142 10123
10508 10505 10504 10502 10516 10494 10488 10532 10518 10511 10500 10491 10475 10489 10480 10466 10452 10459 10448 10440 10435 10426 10415 10403 10391 10377 10367 10354 10342 10328 10316 10305 10290 10279 10267 10251 10237 10219 10204 10187 10165 10142 10116 10099
10486 10484 10480 10474 10479 10462 10464 10520 10484 10493 10481 10457 10458 10475 10462 10444 10432 10434 10418 10408 10401 10393 10383 10371 10357 10348 10339 10326 10315 10303 10292 10280 10266 10254 10241 10229 10215 10200 10183 10165 10144 10122 10100 10078
10460 10459 10447 10441 10438 10422 10482 10479 10473 10454 10463 10446 10436 10438 10428 10412 10419 10416 10389 10382 10373 10363 10354 10345 10333 10324 10313 10304 10289 10279 10267 10255 10240 10228 10219 10208 10195 10180 10162 10144 10126 10105 10079 10057
10432 10424 10418 10403 10402 10410 10446 10466 10436 10426 10434 10450 10410 10399 10387 10386 10384 10390 10358 10357 10346 10336 10329 10318 10310 10300 10289 10278 10268 10257 10243 10228 10215 10205 10196 10186 10173 10158 10143 10123 10104 10083 10061 10037
10398 10391 10383 10381 10369 10366 10423 10430 10404 10395 10394 10446 10374 10374 10367 10357 10348 10360 10337 10328 10322 10314 10306 10295 10284 10276 10266 10258 10245 10231 10220 10206 10194 10182 10173 10164 10150 10138 10121 10107 10087 10063 10040 10019
10375 10370 10360 10353 10338 10340 10382 10380 10367 10365 10399 10369 10362 10356 10337 10330 10326 10321 10314 10305 10300 10291 10282 10271 10264 10256 10245 10234 10222 10208 10194 10182 10170 10160 10150 10140 10127 10116 10101 10083 10066 10046 10020 10000
10337 10329 10334 10332 10319 10315 10358 10334 10333 10350 10344 10340 10335 10323 10309 10306 10302 10292 10287 10280 10273 10266 10258 10250 10241 10233 10223 10213 10200 10187 10173 10162 10149 10136 10126 10113 10104 10091 10075 10062 10045 10024 10002 9983
10291 10310 10306 10296 10296 10306 10314 10311 10316 10319 10312 10312 10301 10293 10286 10283 10273 10263 10259 10251 10245 10239 10234 10225 10214 10206 10196 10188 10178 10164 10152 10137 10127 10116 10103 10091 10079 10066 10054 10040 10021 10006 9986 9969
10275 10283 10258 10264 10283 10285 10283 10293 10295 10287 10280 10274 10273 10269 10262 10254 10243 10237 10231 10223 10218 10216 10210 10199 10189 10179 10170 10162 10152 10140 10128 10118 10104 10093 10082 10071 10059 10046 10031 10019 10000 9982 9970 9959
10249 10240 10243 10239 10261 10262 10260 10266 10259 10251 10246 10248 10243 10237 10234 10224 10220 10215 10205 10198 10192 10189 10187 10174 10164 10156 10146 10138 10127 10116 10104 10095 10083 10073 10061 10049 10039 10030 10011 9991 9978 9959 9948 9946
10207 10204 10205 10207 10231 10218 10236 10247 10226 10218 10228 10220 10209 10210 10209 10197 10194 10191 10179 10167 10166 10163 10158 10151 10143 10132 10124 10116 10105 10092 10080 10070 10060 10050 10041 10027 10017 10009 9996 9980 9946 9931 9925 9925